Preview of NWS' New Version of Forecast
This preview is not operational and should not be used for support decisions.

Regional Weather Roundup (RWR)

Issued by National Weather Service (NWS)

                            
000
ASUS43 KTOP 202308
RWRKS 

WEATHER ROUNDUP FOR KANSAS
NATIONAL WEATHER SERVICE GOODLAND KS
600 PM CDT TUE AUG 20 2019

NOTE:  "FAIR" INDICATES FEW OR NO CLOUDS BELOW 12,000 FEET WITH NO
SIGNIFICANT WEATHER AND/OR OBSTRUCTIONS TO VISIBILITY.

KSZ001>006-013>018-027>032-041>047-210000-
NORTHWEST KANSAS
  
CITY           SKY/WX    TMP DP  RH WIND       PRES   REMARKS
GOODLAND       SUNNY     98  60  28 E9        29.96F HX  98           
HAYS           SUNNY     97  76  50 E12       29.92F HX 110           
HILL CITY      SUNNY     98  70  40 E17G24    29.92S HX 105           
RUSSELL        SUNNY     93  71  48 E10       29.89F HX 100           
$$

KSZ061>065-074>080-084>089-210000-
SOUTHWEST KANSAS
  
CITY           SKY/WX    TMP DP  RH WIND       PRES   REMARKS
DODGE CITY     SUNNY    103  53  19 SW18      29.94S HX 101           
ELKHART        MOSUNNY   99  61  28 S15G23    30.00S HX  99           
GARDEN CITY    SUNNY    100  52  19 S26G33    29.94S HX  97           
GREAT BEND     SUNNY     96  71  44 S6        29.90F HAZE    HX 103   
LIBERAL        SUNNY     99  54  22 S24       29.97F HX  97           
PRATT          SUNNY     98  60  29 S15       29.93R HX  98           
$$

KSZ066>073-081>083-090>101-210000-
SOUTHEAST KANSAS
  
CITY           SKY/WX    TMP DP  RH WIND       PRES   REMARKS
CHANUTE        SUNNY     94  76  55 S12       29.97S HX 106           
COFFEYVILLE    SUNNY     93  77  59 SE7       29.94F HX 107           
HUTCHINSON     SUNNY    100  69  36 S12       29.90S HX 106           
MEDICINE LODGE   N/A     97  65  34 S7        29.90R HX  99           
NEWTON           N/A     92  77  61 SE14      29.94S HX 105           
PARSONS        SUNNY     93  78  61 VRB5      29.97F HX 108           
WICHITA INTL   MOSUNNY  100  71  39 SE18      29.90F HX 108           
WICHITA JABRA  SUNNY     95  74  50 SE9G20    29.92S HX 105           
WICHITA MCCONL SUNNY     97  70  41 E17       29.92F HX 104           
WINFIELD       SUNNY     93  75  55 SE13      29.94S HX 104           
$$

KSZ007>012-019>026-033>040-048>060-102>105-210000-
NORTHEAST KANSAS
  
CITY           SKY/WX    TMP DP  RH WIND       PRES   REMARKS
CONCORDIA      SUNNY     93  78  61 SE8       29.91F HX 108           
EMPORIA        SUNNY     93  78  61 S13       29.94F HX 108           
LAWRENCE       SUNNY     93  77  59 SE12      29.93F HX 107           
MANHATTAN      SUNNY     96  77  54 S7        29.90F HX 111           
MARYSVILLE     SUNNY     88  81  79 SE8       29.93S HX 105           
OLATHE IND     SUNNY     90  76  63 SE14      29.96F HX 101           
OLATHE EXE     SUNNY     89  76  65 S12       29.95F HX 100           
SALINA         SUNNY     96  77  54 SE9       29.90F HX 111           
TOPEKA BILLARD SUNNY     90  78  68 SE10      29.91F HX 104           
TOPEKA FORBES  SUNNY     94  79  61 SE14      29.93F HX 111           
$$